Regional Weather Roundup
Issued by NWS Tiyan, Guam

Home | Current Version | Previous Version | Text Only | Print | Product List | Glossary On
Versions: 1 2 3 4 5 6 7 8 9 10 11 12 13 14 15 16 17 18 19 20 21 22 23 24 25 26 27 28 29
000
ASGM40 PGUM 251612
RWRGUM
WEATHER ROUNDUP FOR THE MARIANAS
NATIONAL WEATHER SERVICE TIYAN GU
200 AM CHST SUN OCT 26 2014

GUZ001>004-251700-
MARIANA ISLANDS-

CITY           SKY/WX    TMP DP  RH WIND       PRES   REMARKS
GUAM AIRPORT   MOCLDY    79  77  94 N5        29.87F
ANDERSEN AFB   MOCLDY    81  77  89 NE9       29.87F
ROTA AIRPORT   NOT AVBL
TINIAN AP      NOT AVBL
SAIPAN AP      PTCLDY    81  77  89 NE12      29.87F

$$




USA.gov is the U.S. government's official web portal to all federal, state and local government web resources and services.